{"data":{"norad_id":45735,"intl_designator":"2020-038F","name":"STARLINK-1471","alt_names":[],"object_type":"PAYLOAD","status":"ACTIVE","operator":null,"country":"US","launch_date":"2020-06-13","launch_site_code":"AFETR","launch_vehicle":null,"mission":null,"orbit_class":"UNKNOWN","rcs_meters":null,"size_class":null,"mass_kg":null,"dimensions":null,"purposes":["comms"],"wikipedia_slug":null,"has_3d_model":false,"image_url":null,"decayed_at":null,"tle_current":{"epoch":"2026-09-20T01:06:05.080032Z","epoch_age_seconds":61247,"freshness":"FRESH","line1":"1 45735U 20038F   26263.04589213  .00026155  00000+0  30244-3 0  9992","line2":"2 45735  53.0404 282.7104 0002949  43.7313 316.3933 15.61714394347767","mean_motion":15.61714394,"eccentricity":0.0002949,"inclination_deg":53.0404,"raan_deg":282.7104,"arg_perigee_deg":43.7313,"mean_anomaly_deg":316.3933,"bstar":0.00030244,"rev_number":34776,"period_min":92.206360236698,"perigee_km":380.71090493658,"apogee_km":384.69844935776,"semimajor_km":6760.8416771472,"source":"CELESTRAK","updated_at":"2026-09-20T09:00:38.455774Z"}}}